www.pogodaiklimat.ru

Погода и климат >> Архив погоды >> Россия >> Калининградская область >> Балтийск


ПОГОДА в Балтийске

  • Прогноз погоды в Балтийске
  • Монитор погоды в Балтийске
  • Климат города

АРХИВ ПОГОДЫ в Балтийске

Время (UTC), дата Ветер
(напр.,м/с)
 
Видим.   Явления Облачность Т
(С)
Тd
(С)
f
(%)
Тe
(С)
Тes
(С)
Комфортность P
(гПа)
Po
(гПа)
Тmin
(С)
Tmax
(С)
R
(мм)
R24
(мм)
S
(см)
03 11.08 СЗ 2-5
{6}
20 км 8/8 600 м
[Cu Sc]
+20.2 +13.2 64 +23 +23 комфорт 1021.5 1020.9 +20.1 6
06 11.08 С 1-1
{5}
20 км 8/8 600 м
[Cb cap]
+20.6 +13.5 64 +24 +25 комфорт 1021.3 1020.7 +19.9
09 11.08 Ю 1-2
{2}
20 км 9/9 600 м
[Cb cap]
+20.7 +13.0 61 +24 +25 комфорт 1020.8 1020.2
12 11.08 Ю 5-7
{9}
20 км слабый ливневой дождь 9/9 300 м
[Cb cap]
+18.4 +15.6 84 +19 +19 1019.3 1018.8
15 11.08 ЮВ 4-4
{7}
20 км {ливн. осадки} 6/5 300 м
[Cu Sc Ac und]
+21.4 +13.6 61 +24 +25 комфорт 1017.2 1016.6 0.0
18 11.08 Ю 3-4
{14}
20 км в посл. час ливневой дождь {гроза} 9/9 300 м
[Cb cap]
+18.0 +14.5 80 +18 +18 1016.1 1015.6 +21.7 5
21 11.08 Ю 5-7
{7}
20 км 3/3 600 м
[Cu hum]
+17.8 +14.2 79 +17 +17 1015.7 1015.2
00 12.08 ЮЗ 13-16
{16}
20 км 3/3 600 м
[Cu Sc]
+19.1 +12.4 65 +19 +19 1014.7 1014.2
03 12.08 штиль 15-15
{17}
50 км ?/? +17.4 +13.1 76 +17 +17 1014.2 1013.7 +17.3
06 12.08 З 14-17
{17}
20 км 3/3 600 м
[Cu Sc]
+18.2 +13.6 75 +17 +17 1014.7 1014.1 +16.7
09 12.08 З 12-15
{17}
20 км 6/6 600 м
[Cu Sc]
+19.1 +12.8 67 +19 +19 1016.1 1015.5
12 12.08 З 8-10
{16}
20 км в посл. час ливневой дождь 8/8 300 м
[Cb calv]
+18.9 +12.6 67 +19 +19 1016.3 1015.7
15 12.08 З 5-7
{13}
20 км 8/6 600 м
[Cu Sc]
+20.3 +12.8 62 +22 +23 комфорт 1015.5 1015.0 0.5
18 12.08 З 4-6
{7}
20 км 9/8 600 м
[Cu Sc Ci fib]
+19.3 +13.5 69 +21 +21 комфорт 1014.6 1014.0 +20.5 0.5
21 12.08 З 3-4
{8}
20 км 8/3 600 м
[Cu Sc Ac trans]
+19.2 +13.9 71 +21 +21 комфорт 1013.8 1013.2
00 13.08 Ю 1-2
{5}
20 км 9/9 600 м
[Cu Sc]
+18.6 +14.4 77 +20 +20 1013.1 1012.4
03 13.08 СВ 2-3
{5}
20 км 10/10 600 м
[St]
+16.6 +13.2 80 +17 +17 1012.3 1011.7 +16.5
06 13.08 В 2-4
{5}
20 км в посл. час ливневой дождь 10/10 300 м
[Cb cap]
+17.2 +14.0 81 +18 +18 1011.9 1011.4 +16.3 0.0
09 13.08 СВ 2-4
{5}
20 км в посл. час ливневой дождь 9/9 300 м
[Cb cap]
+17.9 +14.6 81 +18 +20 1012.1 1011.6
12 13.08 В 2-4
{5}
20 км {ливн. осадки} 9/6 600 м
[Cu Sc Ac trans]
+20.2 +13.4 65 +23 +26 комфорт 1011.6 1011.1
15 13.08 З 1-2
{4}
20 км 8/3 600 м
[Cu Sc Ac trans Ci sp]
+23.1 +13.2 54 +26 +28 жарко 1010.9 1010.4 0.3
18 13.08 СВ 1-1
{3}
20 км 8/8 600 м
[Cu Sc]
+19.3 +14.8 75 +22 +22 комфорт 1010.5 1009.9 +23.4 0.3
21 13.08 В 3-5
{7}
20 км н/о +19.1 +14.2 73 +21 +21 комфорт 1010.2 1009.6
00 14.08 В 2-5
{5}
20 км 8/8 600 м
[Cu Sc]
+17.8 +14.4 80 +18 +18 1009.7 1009.1
03 14.08 В 3-5
{6}
20 км 8/8 600 м
[]
+17.7 +14.2 80 +18 +18 1008.6 1008.0 +17.6 0.3
06 14.08 Ю 4-6
{6}
20 км слабый ливневой дождь 10/10 300 м
[Cb cap]
+19.8 +16.7 82 +22 +22 комфорт 1008.5 1008.1 +17.2 0.0
09 14.08 В 1-2
{8}
20 км {ливн. осадки} 9/8 600 м
[Cu Sc Ac trans]
+20.8 +17.6 82 +26 +28 душно 1008.7 1008.2
12 14.08 З 5-7
{7}
20 км в посл. час ливневой дождь 9/9 300 м
[Cb cap]
+20.2 +17.3 83 +23 +24 комфорт 1009.3 1008.8
15 14.08 ЮЗ 5-6
{7}
20 км 9/6 600 м
[Cu Sc Ci fib]
+21.2 +17.4 79 +25 +26 комфорт 1008.4 1007.9 4
18 14.08 СЗ 4-6
{11}
20 км слабый ливневой дождь 9/9 300 м
[Cb cap]
+19.2 +17.1 88 +21 +21 комфорт 1008.8 1008.3 +22.0 5
21 14.08 ЮЗ 4-5
{6}
20 км {ливн. осадки} 8/8 600 м
[Cu Sc]
+20.4 +16.8 80 +24 +24 комфорт 1009.4 1008.9
00 15.08 Ю 4-5
{7}
20 км {ливн. осадки} 3/3 600 м
[Cu Sc]
+19.7 +16.9 84 +22 +22 комфорт 1009.4 1008.9
03 15.08 ЮЗ 7-9
{11}
20 км 9/9 300 м
[Cb cap]
+20.4 +16.9 80 +23 +23 комфорт 1009.4 1008.9 +19.2 1
06 15.08 З 9-10
{11}
20 км 8/8 300 м
[Cb cap]
+19.9 +16.6 81 +22 +22 комфорт 1010.6 1010.0 +19.2 0.0
09 15.08 З 6-10
{11}
20 км 8/8 300 м
[Cb cap]
+20.3 +16.9 81 +23 +24 комфорт 1012.3 1011.7
12 15.08 З 5-9
{10}
20 км 8/5 600 м
[Sc diur, vesp Ci fib]
+20.9 +16.3 75 +24 +27 комфорт 1014.5 1013.9
15 15.08 СЗ 3-5
{8}
20 км 8/8 600 м
[Sc diur, vesp]
+20.5 +16.2 76 +24 +25 комфорт 1015.9 1015.3
18 15.08 СЗ 3-5
{6}
20 км 8/8 300 м
[Cb cap]
+19.2 +15.8 81 +21 +21 комфорт 1016.8 1016.2 +21.5
21 15.08 СЗ 4-6
{7}
20 км 6/6 600 м
[Cu med, cong]
+19.2 +15.6 80 +21 +21 комфорт 1018.1 1017.5
00 16.08 СЗ 2-3
{6}
20 км 1/1 600 м
[Cu med, cong]
+18.9 +15.7 82 +21 +21 комфорт 1018.6 1018.1
03 16.08 СЗ 1-2
{6}
20 км 3/3 600 м
[Cu med, cong]
+18.3 +15.2 82 +20 +20 1018.9 1018.4 +18.2
06 16.08 З 1-2
{4}
20 км 8/8 600 м
[Cu med, cong]
+22.0 +18.8 82 +27 +28 душно 1019.9 1019.4 +18.2
09 16.08 З 3-4
{5}
20 км 6/6 600 м
[Cu Sc]
+20.9 +17.5 81 +25 +29 комфорт 1020.7 1020.2
12 16.08 З 2-3
{4}
20 км 6/1 600 м
[Cu Sc Ci fib]
+21.9 +17.3 75 +26 +35 душно 1020.5 1020.0
15 16.08 СЗ 2-3
{4}
20 км 3/1 600 м
[Cu Sc Ci fib]
+23.0 +15.4 62 +27 +30 душно 1019.8 1019.3
18 16.08 В 1-3
{3}
20 км 1/1 600 м
[Frnb]
+21.0 +14.7 67 +25 +25 комфорт 1019.3 1018.8 +23.4
21 16.08 В 3-5
{6}
20 км ясно +19.7 +16.6 82 +22 +22 комфорт 1019.4 1018.9
00 17.08 В 1-2
{5}
20 км ясно +18.4 +16.3 88 +20 +20 1019.4 1018.9
03 17.08 ЮВ 5-6
{6}
20 км ясно +19.7 +15.9 79 +22 +22 комфорт 1019.1 1018.6 +18.1
06 17.08 ЮВ 4-6
{6}
20 км ясно +20.0 +15.4 75 +22 +24 комфорт 1019.5 1019.0 +18.1
09 17.08 ЮВ 2-3
{6}
20 км ясно +23.5 +16.1 63 +27 +37 душно 1019.2 1018.7
12 17.08 ЮВ 1-2
{3}
20 км 3/3 600 м
[Cu med, cong]
+25.8 +14.6 50 +28 +37 жарко 1018.4 1017.9
15 17.08 штиль 0-3
{3}
20 км 5/3 600 м
[Cu Sc Ci fib]
+26.3 +14.8 49 +29 +32 жарко 1017.0 1016.5
18 17.08 В 1-3
{3}
20 км 3/3 600 м
[Cu Sc]
+24.0 +16.6 63 +27 +27 жарко 1016.5 1016.0 +26.7
21 17.08 В 1-3
{4}
20 км 3/3 600 м
[Cu Sc]
+22.0 +16.6 71 +26 +26 душно 1017.1 1016.5

 

Местоположение метеостанции Балтийск (Калининградская область, Россия): широта 54.65 долгота 19.88 высота над уровнем моря 4 м.

В архиве по умолчанию представлена погода в Балтийске за последнюю неделю. Архивные данные за месяц целиком и за предыдущие месяцы, начиная с января 2011 года, Вы можете получить, выбрав интересующий диапазон дат из раскрывающегося списка и нажав кнопку "Ввод!".


*Определитесь, кто Вы:
робот инопланетянин человек

Внимание! Время в таблицах - всемирное. Для получения местного времени необходимо прибавить поправку, которая в Балтийске равна 2 ч.

Смотрите также архив погоды в соседних городах и на ближайших метеорологических станциях:

Погода в Мамоново (Калининградская область, Россия) (20 км)
Погода в Рыбном Порту (Калининградская область, Россия) (37 км)
Погода в Пионерском (Калининградская область, Россия) (40 км)
Погода в Калининграде (Калининградская область, Россия) (48 км)
Погода в Elblag (Польша) (61 км)
Погода в Hel (Польша) (68 км)
Погода в Рыбачьем (Калининградская область, Россия) (84 км)
Погода в Oksywie (Польша) (88 км)
Погода в Железнодорожном (Калининградская область, Россия) (97 км)
Погода в Olsztyn (Польша) (104 км)

Пояснения к столбцам:

Ветер - указаны скорость ветра в м/с - средняя за 10 мин, порывы в срок и между сроками (в фигурных скобках) и направление, откуда дует ветер: С - северный, СВ - северо-восточный, В - восточный, ЮВ - юго-восточный, Ю - южный, ЮЗ - юго-западный, З - западный, СЗ - северо-западный.
Видимость - горизонтальная дальность видимости в метрах или километрах. При видимости от 1 до 10 км при отсутствии осадков обычно наблюдается дымка, при ухудшении видимости до 1 км и менее - туман. В сухую погоду видимость может ухудшаться дымом, пылью или мглою.
Явления - указаны атмосферные явления, наблюдавшиеся в срок или в последний час перед сроком; фигурными скобками обозначены явления, наблюдавшиеся между сроками (за 1-3 часа до срока); квадратными скобками обозначены град или гололедные отложения с указанием их диаметра в мм.
Облачность - указаны через наклонную черту общая и нижняя облачность в баллах и высота нижней границы облаков в метрах; квадратными скобками обозначены формы облаков: Ci - перистые, Cs - перисто-слоистые, Cc - перисто-кучевые, Ac - высококучевые, As - высокослоистые, Sc - слоисто-кучевые, Ns - слоисто-дождевые, Cu - кучевые, Cb - кучево-дождевые. Подробнее классификацию облаков см. в Атласе облаков (PDF).
T - Температура воздуха - температура, измеренная на высоте 2 м над землей.
Td - Температура точки росы - температура, при понижении до которой содержащийся в воздухе водяной пар достигнет насыщения.
f - Относительная влажность воздуха - влажноcть воздуха, измеренная на высоте 2 м над землей.
Te - Эффективная температура - температура, которую ощущает одетый по сезону человек в тени. Характеристика душности погоды. При расчете учитывается влияние влажности воздуха и скорости ветра на теплоощущения человека.
Tes - Эффективная температура на солнце - температура, которую ощущает человек, с поправкой на солнечный нагрев. Характеристика знойности погоды. Зависит от высоты солнца над горизонтом, облачности и скорости ветра. Ночью, в пасмурную погоду, а также при ветре 12 м/с и более поправка равна нулю.
P - Атмосферное давление - приведенное к уровню моря атмосферное давление.
Po - Атмосферное давление - измеренное на уровне метеостанции атмосферное давление.
Tmin - Минимальная температура - минимум температуры воздуха на высоте 2 м над землей.
Tmax - Максимальная температура - максимум температуры воздуха на высоте 2 м над землей.
R - Количество осадков - Количество выпавших осадков за период времени, мм. При наведении курсора мыши на число - период времени, за который выпало указанное количество осадков.
R24 - Количество осадков - Количество выпавших осадков за 24 часа, мм.
S - Снежный покров - Высота снежного покрова, см. При наведении курсора мыши на число - состояние снежного покрова и степень покрытия местности в баллах.